Wetbulb
51.84 51.83 51.79 51.88 51.86 52.02 52.22 52.59 53.08 53.42 53.64 53.83 53.96 54.08 54.19 54.15 54.09 54.22 54.50 54.69 54.69 54.73 54.95 55.34 55.59 56.15 56.66 57.17 57.31 57.37 57.58 57.70 57.94 58.10 58.30 58.70 58.89 59.40 59.80 59.92 60.55 61.11 61.31 61.15 61.25 61.15 61.27 61.65 62.36 62.73 62.98 63.26 63.72 63.93 63.94 63.73 63.70 63.59 63.34 62.98 62.23 61.76 61.51 61.20 60.64 60.48 60.59 60.99 61.13
52.00 52.14 52.32 52.27 52.32 52.46 52.76 53.18 53.55 53.92 54.15 54.29 54.39 54.52 54.59 54.54 54.43 54.50 54.71 54.95 55.17 55.27 55.45 55.59 56.02 56.33 56.64 56.92 57.17 57.37 57.43 57.44 57.79 58.00 58.10 58.42 59.10 59.79 60.30 60.07 60.71 61.14 61.32 61.14 60.97 60.68 60.55 61.06 61.89 62.30 62.55 62.97 63.33 63.53 63.68 63.79 63.70 63.50 63.23 62.99 62.65 62.32 62.00 61.53 61.06 60.77 60.69 60.69 61.06
52.43 52.63 52.64 52.58 52.52 52.55 52.78 53.11 53.79 54.31 54.73 54.81 55.01 55.01 54.97 54.85 54.82 54.87 54.99 55.35 55.73 55.89 55.88 55.78 56.36 56.68 56.70 56.73 57.17 57.55 57.75 57.80 57.92 57.98 58.02 58.20 58.79 59.37 59.99 60.41 60.76 61.19 61.47 61.58 61.44 60.86 60.59 60.91 61.51 61.82 62.11 62.49 62.86 63.03 63.29 63.84 63.72 63.43 63.15 63.14 62.92 62.47 62.00 61.69 61.48 61.11 60.85 60.54 60.92
53.17 53.12 52.88 52.74 52.72 52.78 52.96 53.19 54.00 54.69 55.12 55.35 55.57 55.65 55.53 55.33 55.35 55.49 55.66 55.93 56.11 56.13 56.10 56.24 57.28 57.77 57.79 57.39 57.41 57.65 57.96 58.18 58.12 58.12 58.10 58.24 58.67 59.13 59.75 60.48 60.50 60.77 61.32 62.06 62.27 62.23 62.09 61.64 61.65 61.77 62.10 62.55 62.73 62.85 63.04 63.68 63.68 63.44 63.32 63.41 63.15 62.73 62.27 61.80 61.78 61.35 60.92 60.64 60.72
53.57 53.51 53.37 53.18 53.13 53.27 53.52 53.93 54.41 54.91 55.47 55.85 55.85 55.84 55.75 55.81 55.85 56.01 56.12 56.12 55.99 56.12 56.43 57.02 57.96 58.60 58.77 58.31 57.85 57.76 57.90 58.22 57.95 58.08 58.37 58.51 58.84 59.23 59.71 60.25 60.32 60.45 60.82 61.57 62.23 62.49 62.39 62.27 61.91 61.83 62.18 62.76 62.79 62.91 63.29 63.66 63.58 63.43 63.43 63.53 63.50 63.09 62.46 61.92 61.71 61.49 61.25 60.91 60.50
53.69 53.87 53.97 53.99 53.93 53.92 54.09 54.55 54.91 55.28 55.67 55.95 55.92 55.94 55.93 55.95 55.85 55.81 55.69 55.67 56.06 56.53 56.96 57.34 57.87 58.34 58.56 58.32 57.89 57.73 57.71 57.95 58.08 58.30 58.63 59.11 59.34 59.55 59.74 59.79 60.38 60.72 60.84 61.01 61.75 62.31 62.57 62.54 61.94 61.83 62.11 62.83 63.30 63.58 63.65 63.77 63.42 63.19 63.11 63.05 63.09 62.84 62.38 61.99 61.71 61.73 61.60 61.19 60.52
54.29 54.21 54.32 54.54 54.59 54.65 54.75 55.11 55.37 55.55 55.78 56.01 55.93 55.96 56.09 56.27 56.17 56.06 56.05 56.07 56.27 56.34 56.54 56.79 57.26 57.72 58.08 58.06 57.80 57.59 57.62 57.64 57.97 58.34 58.55 58.73 58.94 59.22 59.54 59.86 60.32 60.63 60.81 60.74 61.15 61.80 62.57 62.96 62.16 61.68 61.75 62.19 62.63 63.09 63.52 63.66 63.26 62.99 62.76 62.60 62.60 62.28 62.05 61.76 61.53 61.34 61.14 60.87 60.60
54.97 54.85 54.83 55.02 55.07 55.21 55.34 55.51 55.53 55.58 55.54 55.54 55.73 56.01 56.18 56.41 56.46 56.40 56.23 56.09 56.06 56.13 56.38 56.79 57.27 57.61 57.87 57.98 58.01 57.91 57.75 57.81 57.91 58.03 58.19 58.28 58.42 58.84 59.32 59.96 59.93 60.15 60.43 60.75 61.14 61.58 62.12 62.44 62.12 61.65 61.41 61.69 61.96 62.44 62.95 63.42 63.10 62.85 62.58 62.51 62.46 62.14 61.94 61.73 61.58 61.19 60.76 60.59 60.49
55.29 55.44 55.47 55.51 55.48 55.51 55.61 55.65 55.67 55.56 55.36 55.55 55.95 56.16 56.24 56.30 56.57 56.53 56.17 55.69 55.76 56.12 56.59 56.98 57.31 57.60 57.68 57.65 57.83 57.98 57.98 58.04 57.73 57.85 58.07 58.28 58.54 58.82 59.13 59.53 59.80 59.88 60.15 60.82 61.43 61.75 61.87 61.68 61.77 61.79 61.59 61.12 61.22 61.82 62.58 63.10 62.95 62.58 62.30 62.24 62.19 62.08 61.95 61.74 61.59 61.26 60.84 60.56 60.25
55.32 55.46 55.54 55.43 55.32 55.43 55.60 55.50 55.62 55.49 55.52 55.58 55.98 56.18 56.12 56.04 56.20 56.10 55.86 55.60 55.80 55.97 56.24 56.72 57.06 57.31 57.33 57.39 57.52 57.59 57.64 57.70 57.75 57.93 58.27 58.53 58.79 59.08 59.17 59.22 59.63 59.93 60.31 61.03 61.62 62.05 62.15 61.89 62.00 62.10 62.10 61.31 61.07 61.47 62.08 62.71 62.66 62.40 62.03 61.79 61.84 61.79 61.72 61.53 61.52 61.24 60.84 60.45 60.18
55.58 55.78 55.89 55.67 55.58 55.64 55.72 55.40 55.43 55.43 55.45 55.53 55.71 55.76 55.74 55.64 55.63 55.74 55.86 56.04 56.07 55.92 55.98 56.41 56.84 56.86 56.82 56.99 57.38 57.55 57.69 57.87 57.80 57.89 58.06 58.39 58.69 58.91 59.05 59.16 59.56 59.88 60.36 61.04 61.73 62.20 62.31 62.17 61.99 62.11 62.28 62.21 61.63 61.47 61.65 62.10 62.29 62.24 62.00 61.83 61.74 61.56 61.36 61.46 61.34 61.12 60.81 60.54 60.38
55.95 56.22 56.51 56.61 56.49 56.39 56.07 55.40 55.56 55.60 55.63 55.60 55.71 55.68 55.55 55.39 55.63 55.91 56.23 56.27 55.86 55.89 56.17 56.77 56.91 56.86 56.75 56.85 57.49 57.77 57.86 58.01 58.10 58.04 57.99 57.99 58.36 58.73 59.15 59.69 59.74 60.14 60.58 61.30 61.84 62.16 62.10 62.00 61.55 61.52 61.71 61.92 62.03 61.88 61.68 61.88 61.89 61.87 61.87 61.77 61.66 61.32 61.09 61.06 61.19 61.08 60.85 60.75 60.42
55.97 56.13 56.35 56.57 56.74 56.58 56.22 55.77 55.81 55.99 56.02 55.85 55.91 55.86 55.76 55.58 55.85 56.19 56.38 56.32 56.12 56.21 56.67 57.33 57.54 57.45 57.31 57.37 57.59 57.74 57.81 57.82 57.89 57.84 57.78 57.90 58.34 58.87 59.54 60.24 60.47 60.72 61.01 61.50 61.98 62.01 61.77 61.51 61.16 60.93 61.04 61.55 61.96 61.98 61.90 61.98 61.79 61.59 61.59 61.64 61.51 61.26 61.04 60.97 61.20 61.16 61.03 60.80 60.36
54.70 55.06 55.36 55.90 56.11 56.07 55.84 55.72 55.91 56.18 56.29 56.26 56.39 56.30 56.21 56.19 56.24 56.43 56.52 56.27 56.32 56.62 57.14 57.60 57.82 57.88 57.85 57.91 57.81 57.70 57.73 57.68 57.71 57.80 57.89 58.07 58.52 59.13 59.90 60.68 61.19 61.34 61.45 61.71 61.82 61.86 61.72 61.55 61.09 60.83 60.84 61.27 61.63 61.88 61.87 61.87 61.74 61.59 61.48 61.44 61.39 61.28 61.11 61.16 61.33 61.19 60.88 60.54 60.31
50.77 51.58 52.34 53.38 54.10 54.78 55.24 55.59 55.95 56.25 56.31 56.42 56.59 56.69 56.85 56.72 56.79 56.94 56.82 56.48 56.62 56.98 57.29 57.41 57.67 57.95 58.28 58.40 58.17 58.03 57.89 57.84 57.86 57.84 57.85 58.08 58.79 59.45 60.11 60.78 61.11 61.42 61.68 61.86 61.50 61.51 61.69 61.67 61.19 60.88 60.83 61.05 61.42 61.72 61.90 61.72 61.61 61.55 61.58 61.51 61.52 61.41 61.34 61.33 61.19 61.06 60.75 60.40 60.31
48.07 48.42 49.01 49.59 50.59 51.71 53.07 54.29 55.29 55.90 56.18 56.25 56.51 56.79 56.94 56.96 57.29 57.20 57.08 56.67 56.81 57.13 57.31 57.35 57.65 58.13 58.46 58.59 58.61 58.47 58.35 58.41 58.25 57.96 57.89 58.17 58.97 59.66 60.22 60.74 60.90 61.25 61.61 61.80 61.48 61.53 61.72 61.79 61.45 60.99 60.80 61.08 61.48 61.78 61.88 61.74 61.63 61.61 61.63 61.68 61.73 61.64 61.53 61.24 60.90 60.65 60.52 60.43 60.08
47.26 47.44 47.57 47.75 47.93 48.52 49.37 50.73 52.27 53.62 54.69 55.40 56.02 56.38 56.47 56.57 57.08 57.13 57.04 57.00 57.13 57.22 57.35 57.52 57.88 58.10 58.27 58.24 58.49 58.65 58.65 58.53 58.24 57.99 57.87 58.32 59.06 59.75 60.22 60.38 60.68 61.07 61.43 61.58 61.51 61.59 61.68 61.80 61.62 61.31 61.16 61.28 61.74 61.96 61.88 61.75 61.69 61.77 61.74 61.71 61.79 61.68 61.51 61.17 60.74 60.40 60.19 60.16 59.84
46.45 46.77 46.90 47.08 47.12 47.26 47.53 48.02 48.92 50.10 51.27 52.48 53.74 54.69 55.37 55.78 56.10 56.46 56.86 57.21 57.53 57.47 57.51 57.54 57.73 57.88 57.88 58.05 58.36 58.76 58.89 58.66 58.26 58.04 58.15 58.68 59.29 59.81 60.10 60.13 60.51 60.77 60.98 61.13 61.18 61.26 61.46 61.74 61.74 61.53 61.24 61.40 61.74 61.95 61.92 61.76 61.74 61.76 61.83 61.72 61.76 61.56 61.42 61.19 60.79 60.32 60.04 59.88 59.69
45.78 46.05 46.27 46.36 46.54 46.72 47.03 47.39 47.75 48.11 48.56 49.37 50.41 51.45 52.44 53.30 54.12 55.07 56.10 56.99 57.38 57.41 57.36 57.27 57.32 57.46 57.69 57.95 58.31 58.59 58.69 58.73 58.44 58.44 58.72 59.17 59.62 59.97 60.18 60.29 60.58 60.69 60.78 60.74 60.87 61.13 61.34 61.68 61.73 61.57 61.33 61.30 61.54 61.78 61.88 61.76 61.66 61.67 61.74 61.76 61.57 61.37 61.19 61.00 60.81 60.47 60.13 59.93 59.79
45.24 45.55 45.73 45.96 46.14 46.27 46.63 47.03 47.39 47.66 47.98 48.34 48.61 49.01 49.60 50.23 50.95 51.94 53.21 54.79 56.30 57.06 57.33 57.11 57.25 57.42 57.77 58.11 58.52 58.67 58.78 58.97 59.04 59.17 59.42 59.82 60.10 60.37 60.54 60.66 60.72 60.72 60.71 60.71 60.79 60.96 61.17 61.43 61.56 61.53 61.33 61.12 61.19 61.38 61.53 61.54 61.49 61.51 61.43 61.61 61.59 61.34 61.06 60.93 60.74 60.47 60.20 59.95 59.77
44.74 45.24 45.55 45.82 45.87 46.00 46.23 46.54 46.94 47.35 47.66 47.93 47.98 48.20 48.47 48.83 49.24 49.73 50.41 51.76 53.56 55.05 56.04 56.63 56.67 57.11 57.64 58.21 58.53 58.67 58.81 59.10 59.36 59.61 59.81 60.20 60.30 60.56 60.82 60.90 60.81 60.63 60.60 60.60 60.58 60.74 60.95 61.21 61.48 61.53 61.37 61.22 61.06 61.22 61.32 61.27 61.18 61.08 61.16 61.21 61.37 61.29 61.05 60.73 60.45 60.22 59.95 59.68 59.50
44.20 44.83 45.33 45.73 45.73 45.82 46.00 46.22 46.58 46.90 47.12 47.21 47.48 47.53 47.75 47.98 48.38 48.88 49.42 50.04 50.72 51.35 52.03 52.89 53.66 54.70 55.78 56.82 57.53 58.02 58.38 58.75 59.18 59.65 60.03 60.24 60.37 60.54 60.76 60.85 60.72 60.60 60.38 60.24 60.28 60.45 60.71 61.01 61.28 61.42 61.39 61.15 61.08 61.04 61.09 60.96 60.73 60.64 60.64 60.64 60.81 60.69 60.49 60.35 59.98 59.79 59.56 59.38 59.20
43.67 44.34 44.88 45.33 45.42 45.60 45.78 45.91 46.13 46.31 46.58 46.63 46.81 46.90 46.95 47.17 47.66 48.20 48.60 48.96 49.05 49.19 49.24 49.51 49.87 50.59 51.58 52.81 54.26 55.52 56.65 57.73 58.93 59.76 60.27 60.37 60.37 60.40 60.45 60.47 60.34 60.26 60.08 60.03 60.20 60.38 60.61 60.70 60.93 61.11 61.11 60.90 60.81 60.77 60.77 60.63 60.37 60.24 60.10 59.97 59.97 59.91 59.76 59.52 59.33 59.14 59.04 59.00 58.87
43.09 43.72 44.30 44.79 44.88 45.06 45.28 45.41 45.55 45.69 45.78 46.09 46.32 46.45 46.54 46.59 46.95 47.30 47.66 47.84 48.11 48.34 48.52 48.70 48.83 49.06 49.33 49.55 50.05 50.81 52.13 53.75 55.92 58.03 59.63 60.54 60.48 60.29 60.16 60.14 60.12 60.07 59.97 60.01 59.97 59.92 60.01 60.35 60.62 60.66 60.75 60.75 60.56 60.46 60.36 60.35 60.13 59.95 59.69 59.34 59.12 59.03 58.94 58.76 58.65 58.63 58.53 58.50 58.51
42.56 43.06 43.54 43.90 44.12 44.43 44.65 44.79 44.88 45.01 45.19 45.46 45.69 45.87 46.00 46.09 46.32 46.36 46.41 46.59 46.99 47.30 47.57 47.84 48.16 48.47 48.79 48.79 48.74 48.83 49.15 49.73 50.95 52.98 55.61 58.72 59.95 60.12 59.94 59.82 59.78 59.83 59.77 59.50 57.97 57.34 57.56 58.69 59.50 60.00 60.31 60.45 60.26 60.12 59.97 59.96 59.73 59.51 59.24 58.85 58.54 58.36 58.28 58.10 58.01 58.09 58.04 58.09 58.15
41.95 42.30 42.70 43.06 43.32 43.63 43.90 44.16 44.30 44.56 44.74 44.92 45.15 45.24 45.46 45.64 45.73 45.73 45.65 45.73 46.09 46.41 46.68 46.86 46.99 47.39 47.66 47.98 47.93 47.80 47.80 47.89 48.16 48.70 50.05 52.68 56.31 58.69 59.85 59.62 59.53 59.76 59.49 57.92 56.30 55.80 56.15 57.00 57.62 58.52 59.46 60.13 59.82 59.46 59.33 59.27 59.18 59.04 58.76 58.50 58.19 57.88 57.66 57.49 57.45 57.59 57.72 57.85 58.03
41.19 41.59 41.99 42.44 42.57 42.83 43.15 43.63 43.90 44.07 44.25 44.29 44.43 44.61 44.83 45.15 45.15 45.10 45.02 45.06 45.29 45.65 45.96 46.05 46.09 46.31 46.67 46.94 46.81 46.72 46.85 47.08 47.17 47.17 47.26 47.57 49.38 52.46 55.91 59.21 59.51 59.51 58.53 55.46 54.33 54.46 55.13 55.94 56.24 56.92 57.94 59.47 59.25 58.98 58.72 58.67 58.75 58.70 58.52 58.30 58.08 57.85 57.58 57.27 57.28 57.33 57.46 57.73 57.94
40.48 41.10 41.51 41.82 41.90 42.13 42.61 43.06 43.19 43.41 43.63 43.76 43.94 44.20 44.52 44.70 44.57 44.48 44.39 44.48 44.62 44.88 45.11 45.15 45.46 45.69 45.82 45.77 45.73 45.82 46.00 46.27 46.49 46.63 46.63 46.36 46.32 46.76 48.30 50.97 53.87 54.05 52.51 49.84 51.15 52.83 54.28 55.14 55.36 55.67 56.57 58.23 59.08 59.08 58.72 58.68 58.64 58.50 58.37 58.19 58.10 58.00 57.81 57.67 57.63 57.58 57.54 57.68 57.90
39.92 40.59 41.12 41.25 41.42 41.68 42.04 42.35 42.52 42.79 43.10 43.50 43.68 43.99 44.17 44.21 44.07 43.94 43.89 43.89 43.94 44.02 44.11 44.42 44.79 44.88 44.74 44.51 44.74 45.06 45.24 45.46 45.69 45.82 45.87 45.96 45.78 45.64 45.51 45.42 45.82 46.04 46.36 47.08 48.02 49.88 52.06 54.10 54.55 54.91 55.32 56.31 58.37 59.09 58.95 58.64 58.51 58.37 58.33 58.28 58.28 58.23 58.22 58.17 58.08 57.94 57.85 57.85 57.90
39.43 40.05 40.50 40.76 40.98 41.33 41.64 41.99 42.30 42.61 43.02 43.32 43.37 43.55 43.60 43.68 43.45 43.44 43.53 43.53 43.57 43.75 43.97 44.19 44.15 44.02 43.84 43.70 44.06 44.20 44.42 44.69 44.97 45.15 45.15 45.10 45.10 45.19 45.32 45.37 45.41 45.86 46.76 47.93 48.16 48.34 49.29 51.42 53.15 54.10 54.60 55.01 57.17 58.42 58.95 58.68 58.50 58.37 58.32 58.32 58.40 58.39 58.39 58.34 58.25 58.12 58.03 58.08 57.99
38.37 39.08 39.74 40.23 40.50 40.85 41.29 41.82 42.27 42.67 42.94 42.98 43.12 43.16 43.06 42.92 42.87 42.96 43.17 43.48 43.57 43.89 44.16 44.16 43.89 43.66 43.57 43.57 43.66 43.65 43.70 44.02 44.20 44.43 44.47 44.42 44.56 44.65 44.87 45.14 45.37 45.82 46.45 47.39 47.71 47.84 47.89 48.39 50.29 52.10 53.42 53.92 56.27 57.98 58.82 58.69 58.37 58.28 58.32 58.37 58.44 58.53 58.52 58.43 58.42 58.25 58.07 58.12 58.08
37.34 38.01 38.72 39.48 39.79 40.32 40.90 41.61 42.01 42.37 42.55 42.73 42.77 42.76 42.67 42.53 42.57 42.79 43.14 43.45 43.63 43.67 43.72 43.58 43.35 43.21 43.12 43.21 43.17 43.26 43.34 43.43 43.48 43.66 43.88 44.02 44.11 44.20 44.38 44.61 44.79 45.15 45.91 46.86 47.26 47.39 47.39 47.26 47.53 48.89 50.70 52.29 55.23 57.53 58.73 58.55 58.37 58.28 58.37 58.50 58.57 58.57 58.43 58.15 58.11 58.07 58.07 58.07 58.03
36.29 36.95 37.66 38.41 39.03 39.61 40.28 40.95 41.48 41.84 42.12 42.38 42.28 42.32 42.36 42.45 42.59 42.72 43.02 43.29 43.32 43.19 43.00 42.95 42.90 42.81 42.67 42.67 42.67 42.81 42.99 43.16 43.25 43.43 43.57 43.66 43.80 43.89 43.89 44.07 44.34 44.88 45.60 46.41 46.72 46.95 46.99 47.03 46.85 46.94 47.67 49.16 53.51 56.72 58.60 58.69 58.42 58.33 58.28 58.32 58.35 58.30 58.25 58.10 57.97 57.98 57.97 58.02 57.93
35.41 35.86 36.52 37.27 38.06 38.64 39.26 39.93 40.60 41.13 41.50 41.67 41.75 41.93 42.07 42.20 42.24 42.37 42.58 42.85 43.07 43.06 42.93 42.92 42.87 42.90 42.90 42.85 42.67 42.62 42.67 42.89 43.12 43.26 43.30 43.39 43.53 43.53 43.49 43.48 43.88 44.56 45.29 46.00 46.36 46.50 46.54 46.59 46.63 46.67 46.85 47.49 51.20 54.73 57.39 58.38 58.15 58.10 58.05 58.05 58.10 58.04 58.03 58.03 58.02 58.07 58.02 57.93 57.80
34.81 35.07 35.55 36.26 36.97 37.66 38.20 38.77 39.49 40.07 40.47 40.73 41.00 41.41 41.69 41.83 41.95 42.03 42.24 42.64 42.96 43.00 42.91 42.99 43.12 43.15 43.10 43.19 42.95 42.77 42.63 42.58 42.72 42.94 43.08 43.12 43.17 43.12 43.08 43.08 43.52 44.25 44.98 45.56 45.87 46.05 46.09 46.14 46.14 46.18 46.40 47.12 49.29 51.70 54.14 56.36 57.12 57.47 57.60 57.68 57.73 57.73 57.73 57.82 57.95 58.03 58.03 57.89 57.72
34.47 34.59 34.81 35.31 36.04 36.61 37.14 37.58 38.20 38.77 39.22 39.66 40.02 40.52 40.95 41.28 41.67 41.98 42.23 42.54 42.64 42.68 42.63 42.66 42.93 42.78 42.72 42.80 42.70 42.64 42.54 42.36 42.40 42.59 42.77 42.95 42.81 42.72 42.72 42.85 43.17 43.85 44.53 45.20 45.51 45.69 45.87 45.87 45.73 45.69 45.73 46.00 46.76 47.85 49.48 52.06 54.55 56.13 56.84 57.10 57.15 57.37 57.50 57.55 57.64 57.82 57.86 57.81 57.67
33.97 34.05 34.22 34.54 35.15 35.69 36.17 36.51 36.99 37.48 37.92 38.54 39.01 39.56 40.19 40.65 41.20 41.69 42.17 42.39 42.34 42.21 42.20 42.32 42.36 42.26 42.19 42.22 42.39 42.56 42.60 42.50 42.41 42.41 42.45 42.54 42.36 42.40 42.40 42.63 42.99 43.44 44.03 44.75 45.20 45.47 45.60 45.60 45.51 45.33 45.06 44.83 44.96 45.27 46.08 47.53 50.11 52.65 54.73 56.13 56.62 57.01 57.37 57.37 57.42 57.46 57.64 57.77 57.19
33.81 33.78 33.88 33.92 34.40 34.89 35.37 35.61 35.89 36.27 36.84 37.61 38.11 38.87 39.54 40.08 40.58 41.08 41.66 41.95 41.82 41.82 41.77 41.86 41.88 41.91 41.98 42.15 42.37 42.54 42.58 42.66 42.47 42.28 42.10 42.10 42.09 42.00 42.13 42.36 42.76 43.21 43.75 44.43 44.88 45.20 45.42 45.51 45.38 45.06 44.70 44.06 44.10 44.37 44.82 45.18 45.81 47.35 49.48 52.15 54.28 55.72 56.52 56.98 57.15 57.28 57.28 57.05 54.32
33.85 33.84 33.89 33.81 33.95 34.28 34.68 34.85 35.07 35.52 36.05 36.69 37.24 37.96 38.76 39.27 39.84 40.38 40.96 41.53 41.67 41.66 41.66 41.56 41.60 41.85 42.14 42.14 42.21 42.34 42.42 42.55 42.54 42.34 42.15 42.01 42.05 41.95 41.95 42.13 42.49 42.99 43.58 44.21 44.61 45.02 45.24 45.38 45.29 45.02 44.57 43.84 43.78 43.92 44.28 44.32 43.96 43.96 44.37 45.31 47.67 50.02 52.10 53.46 54.86 55.76 56.29 56.29 51.56
33.80 33.94 33.93 33.86 33.84 34.05 34.20 34.24 34.58 35.03 35.55 36.12 36.36 37.03 37.79 38.38 39.15 39.86 40.49 40.90 41.35 41.61 41.73 41.68 41.90 42.11 42.27 42.17 41.98 41.97 42.09 42.27 42.39 42.41 42.39 42.15 42.11 41.96 41.83 42.05 42.27 42.77 43.40 44.03 44.48 44.89 45.11 45.33 45.33 45.06 44.57 43.61 43.38 43.42 43.64 43.64 43.37 43.01 42.61 42.43 42.78 43.78 45.13 46.72 48.75 50.88 53.01 54.76 52.06
33.73 33.77 33.73 33.63 33.75 33.92 33.94 33.98 34.33 34.78 35.35 35.82 35.93 36.49 37.18 37.85 38.48 39.06 39.55 39.83 40.50 41.06 41.49 41.71 42.02 42.36 42.44 42.24 42.09 41.90 41.92 41.88 42.06 42.26 42.46 42.39 42.21 42.06 41.92 42.05 42.05 42.45 43.09 43.81 44.35 44.75 45.02 45.11 45.29 45.15 44.70 43.66 43.20 43.02 43.06 42.92 42.56 42.20 42.02 41.97 42.19 42.33 42.51 42.92 44.10 45.72 47.85 50.29 51.65
MSLP
1004.80 1004.76 1004.72 1004.68 1004.60 1004.56 1004.56 1004.52 1004.52 1004.48 1004.44 1004.40 1004.32 1004.28 1004.24 1004.20 1004.20 1004.16 1004.16 1004.16 1004.16 1004.16 1004.16 1004.16 1004.16 1004.12 1004.16 1004.16 1004.16 1004.16 1004.20 1004.20 1004.16 1004.16 1004.12 1004.12 1004.04 1004.08 1004.16 1004.28 1004.44 1004.56 1004.60 1004.64 1004.72 1004.72 1004.68 1004.68 1004.72 1004.72 1004.64 1004.56 1004.56 1004.68 1004.84 1004.92 1005.04 1005.16 1005.28 1005.28 1005.20 1005.00 1004.88 1004.80 1004.96 1005.20 1005.44 1005.72 1005.88
1004.64 1004.60 1004.56 1004.52 1004.52 1004.44 1004.44 1004.36 1004.32 1004.32 1004.32 1004.28 1004.20 1004.16 1004.08 1004.04 1004.00 1003.88 1003.84 1003.84 1003.84 1003.84 1003.88 1003.84 1003.84 1003.84 1003.84 1003.80 1003.84 1003.84 1003.88 1003.88 1003.84 1003.84 1003.84 1003.80 1003.72 1003.76 1003.84 1003.92 1004.00 1004.12 1004.20 1004.28 1004.28 1004.32 1004.32 1004.32 1004.44 1004.44 1004.44 1004.40 1004.44 1004.48 1004.52 1004.48 1004.64 1004.88 1005.00 1004.96 1004.92 1004.84 1004.72 1004.64 1004.72 1004.84 1005.00 1005.28 1005.48
1004.44 1004.44 1004.44 1004.44 1004.40 1004.28 1004.24 1004.16 1004.12 1004.12 1004.08 1004.04 1004.00 1003.96 1003.88 1003.84 1003.72 1003.68 1003.60 1003.56 1003.56 1003.56 1003.56 1003.56 1003.56 1003.56 1003.56 1003.52 1003.52 1003.52 1003.48 1003.48 1003.48 1003.52 1003.52 1003.44 1003.44 1003.44 1003.48 1003.56 1003.60 1003.68 1003.76 1003.84 1003.96 1003.96 1003.96 1004.00 1004.04 1004.12 1004.12 1004.12 1004.16 1004.16 1004.16 1004.12 1004.28 1004.48 1004.64 1004.64 1004.64 1004.56 1004.52 1004.44 1004.52 1004.68 1004.88 1005.16 1005.36
1004.32 1004.32 1004.32 1004.24 1004.16 1004.12 1004.08 1004.00 1003.92 1003.88 1003.84 1003.80 1003.76 1003.72 1003.64 1003.56 1003.52 1003.44 1003.32 1003.28 1003.24 1003.28 1003.28 1003.24 1003.32 1003.36 1003.36 1003.32 1003.28 1003.20 1003.16 1003.12 1003.12 1003.16 1003.12 1003.04 1003.00 1003.00 1003.08 1003.16 1003.20 1003.28 1003.32 1003.44 1003.56 1003.60 1003.64 1003.64 1003.72 1003.76 1003.80 1003.80 1003.72 1003.72 1003.76 1003.76 1003.88 1004.08 1004.24 1004.28 1004.36 1004.28 1004.20 1004.16 1004.28 1004.48 1004.72 1004.96 1005.24
1004.24 1004.20 1004.16 1004.04 1004.00 1003.96 1003.92 1003.88 1003.84 1003.76 1003.72 1003.68 1003.56 1003.44 1003.32 1003.28 1003.28 1003.24 1003.16 1003.08 1003.00 1003.00 1002.96 1003.00 1003.12 1003.16 1003.16 1003.12 1003.04 1003.00 1002.92 1002.88 1002.88 1002.88 1002.80 1002.72 1002.68 1002.72 1002.72 1002.76 1002.84 1002.84 1002.88 1003.00 1003.12 1003.20 1003.28 1003.32 1003.40 1003.44 1003.44 1003.44 1003.56 1003.48 1003.40 1003.40 1003.56 1003.72 1003.84 1004.04 1004.04 1003.96 1003.84 1003.88 1004.08 1004.28 1004.44 1004.68 1005.00
1004.12 1004.08 1004.04 1004.00 1003.88 1003.84 1003.80 1003.80 1003.72 1003.68 1003.60 1003.56 1003.44 1003.28 1003.12 1003.00 1003.00 1002.92 1002.88 1002.76 1002.72 1002.68 1002.72 1002.84 1002.88 1002.96 1002.92 1002.88 1002.80 1002.76 1002.72 1002.68 1002.64 1002.60 1002.56 1002.56 1002.52 1002.48 1002.44 1002.44 1002.44 1002.52 1002.56 1002.68 1002.72 1002.80 1002.88 1003.04 1003.12 1003.12 1003.12 1003.12 1003.12 1003.00 1002.96 1003.12 1003.28 1003.40 1003.56 1003.72 1003.68 1003.56 1003.48 1003.56 1003.72 1003.96 1004.20 1004.44 1004.76
1004.00 1004.00 1003.96 1003.92 1003.84 1003.80 1003.72 1003.64 1003.60 1003.56 1003.56 1003.48 1003.32 1003.16 1003.00 1002.88 1002.72 1002.64 1002.56 1002.52 1002.44 1002.44 1002.48 1002.56 1002.64 1002.72 1002.72 1002.60 1002.56 1002.48 1002.44 1002.44 1002.40 1002.36 1002.32 1002.28 1002.24 1002.28 1002.28 1002.16 1002.16 1002.20 1002.28 1002.28 1002.40 1002.44 1002.52 1002.60 1002.72 1002.76 1002.84 1002.84 1002.72 1002.56 1002.60 1002.80 1002.88 1003.04 1003.20 1003.28 1003.28 1003.20 1003.16 1003.12 1003.28 1003.60 1003.92 1004.12 1004.44
1003.92 1003.88 1003.84 1003.84 1003.84 1003.76 1003.68 1003.56 1003.56 1003.48 1003.40 1003.28 1003.16 1003.00 1002.88 1002.80 1002.72 1002.56 1002.52 1002.44 1002.36 1002.32 1002.32 1002.36 1002.36 1002.40 1002.44 1002.40 1002.32 1002.28 1002.24 1002.24 1002.20 1002.16 1002.08 1002.00 1001.96 1001.96 1001.96 1001.96 1002.00 1002.00 1002.00 1002.04 1002.12 1002.16 1002.20 1002.28 1002.28 1002.36 1002.44 1002.56 1002.44 1002.28 1002.28 1002.44 1002.52 1002.68 1002.80 1002.88 1002.92 1002.88 1002.80 1002.76 1002.96 1003.24 1003.56 1003.84 1004.08
1003.72 1003.72 1003.68 1003.68 1003.64 1003.60 1003.56 1003.48 1003.44 1003.32 1003.20 1003.08 1002.88 1002.80 1002.72 1002.68 1002.56 1002.52 1002.44 1002.44 1002.40 1002.36 1002.32 1002.28 1002.24 1002.24 1002.24 1002.16 1002.08 1002.00 1002.00 1002.04 1002.04 1002.00 1001.92 1001.84 1001.76 1001.72 1001.72 1001.72 1001.72 1001.72 1001.76 1001.80 1001.84 1001.84 1001.88 1002.00 1001.96 1001.92 1002.00 1002.16 1002.12 1002.00 1001.96 1002.00 1002.16 1002.24 1002.32 1002.44 1002.56 1002.56 1002.44 1002.40 1002.56 1002.84 1003.16 1003.44 1003.72
1003.48 1003.44 1003.44 1003.40 1003.32 1003.28 1003.28 1003.24 1003.20 1003.16 1003.00 1002.88 1002.68 1002.56 1002.52 1002.44 1002.44 1002.36 1002.28 1002.28 1002.28 1002.28 1002.28 1002.20 1002.16 1002.16 1002.12 1002.00 1001.84 1001.72 1001.68 1001.76 1001.84 1001.84 1001.80 1001.72 1001.64 1001.56 1001.48 1001.44 1001.44 1001.40 1001.40 1001.44 1001.48 1001.52 1001.56 1001.56 1001.52 1001.48 1001.56 1001.68 1001.76 1001.76 1001.72 1001.72 1001.76 1001.84 1001.96 1002.12 1002.16 1002.16 1002.16 1002.12 1002.28 1002.52 1002.80 1003.04 1003.28
1003.28 1003.20 1003.16 1003.12 1003.00 1003.00 1002.96 1002.96 1002.88 1002.84 1002.72 1002.60 1002.44 1002.32 1002.24 1002.20 1002.16 1002.08 1002.04 1002.08 1002.12 1002.04 1002.00 1001.92 1001.96 1001.92 1001.84 1001.84 1001.64 1001.44 1001.36 1001.44 1001.52 1001.56 1001.56 1001.48 1001.44 1001.36 1001.28 1001.20 1001.16 1001.08 1001.04 1001.00 1001.04 1001.08 1001.12 1001.08 1001.08 1001.12 1001.12 1001.16 1001.28 1001.40 1001.44 1001.40 1001.40 1001.44 1001.56 1001.72 1001.84 1001.84 1001.84 1001.84 1001.96 1002.20 1002.44 1002.64 1002.88
1003.16 1003.08 1002.96 1002.88 1002.76 1002.72 1002.68 1002.60 1002.56 1002.44 1002.36 1002.24 1002.12 1002.00 1001.92 1001.84 1001.76 1001.72 1001.72 1001.76 1001.72 1001.68 1001.56 1001.52 1001.52 1001.48 1001.48 1001.48 1001.36 1001.20 1001.12 1001.12 1001.16 1001.20 1001.20 1001.16 1001.12 1001.08 1001.00 1000.92 1000.84 1000.72 1000.68 1000.60 1000.64 1000.64 1000.64 1000.60 1000.72 1000.72 1000.72 1000.72 1000.80 1000.88 1000.96 1001.04 1001.04 1001.08 1001.16 1001.28 1001.44 1001.56 1001.56 1001.52 1001.64 1001.84 1002.00 1002.24 1002.48
1003.20 1003.00 1002.88 1002.76 1002.64 1002.52 1002.44 1002.32 1002.28 1002.16 1002.00 1001.88 1001.76 1001.64 1001.56 1001.44 1001.40 1001.40 1001.40 1001.44 1001.40 1001.28 1001.16 1001.08 1001.00 1001.00 1001.00 1001.00 1001.00 1000.96 1000.88 1000.84 1000.80 1000.84 1000.80 1000.72 1000.72 1000.68 1000.56 1000.48 1000.40 1000.32 1000.28 1000.20 1000.20 1000.20 1000.20 1000.24 1000.28 1000.36 1000.44 1000.36 1000.32 1000.36 1000.48 1000.64 1000.72 1000.72 1000.76 1000.88 1001.04 1001.12 1001.16 1001.16 1001.28 1001.44 1001.68 1001.84 1002.12
1003.56 1003.32 1003.12 1002.88 1002.68 1002.52 1002.40 1002.28 1002.12 1001.92 1001.72 1001.56 1001.44 1001.28 1001.20 1001.08 1001.04 1001.08 1001.12 1001.12 1001.04 1000.92 1000.80 1000.68 1000.56 1000.52 1000.48 1000.48 1000.52 1000.52 1000.48 1000.44 1000.44 1000.44 1000.36 1000.28 1000.24 1000.16 1000.08 999.96 999.88 999.84 999.76 999.72 999.76 999.84 999.88 999.88 999.84 999.84 999.92 999.96 999.92 999.96 1000.12 1000.28 1000.32 1000.32 1000.32 1000.44 1000.56 1000.60 1000.72 1000.80 1000.96 1001.16 1001.32 1001.52 1001.64
1004.20 1003.92 1003.60 1003.28 1002.92 1002.64 1002.44 1002.20 1001.92 1001.72 1001.48 1001.28 1001.12 1001.00 1000.88 1000.80 1000.72 1000.72 1000.72 1000.72 1000.60 1000.48 1000.44 1000.36 1000.20 1000.12 1000.00 1000.00 1000.00 1000.04 1000.00 1000.00 1000.00 999.96 999.88 999.80 999.72 999.64 999.56 999.44 999.36 999.32 999.28 999.28 999.32 999.44 999.48 999.44 999.36 999.36 999.44 999.52 999.60 999.68 999.72 999.80 999.84 999.84 999.84 999.88 1000.00 1000.16 1000.28 1000.44 1000.64 1000.84 1001.00 1001.12 1001.24
1004.56 1004.36 1004.08 1003.76 1003.44 1003.08 1002.72 1002.32 1001.96 1001.64 1001.32 1001.08 1000.88 1000.72 1000.56 1000.44 1000.36 1000.36 1000.40 1000.28 1000.24 1000.16 1000.08 1000.00 999.84 999.72 999.68 999.64 999.64 999.64 999.60 999.56 999.52 999.48 999.44 999.36 999.20 999.08 999.00 998.88 998.88 998.88 998.88 998.88 998.88 998.92 998.96 998.88 998.88 998.92 999.00 999.16 999.28 999.36 999.36 999.28 999.32 999.32 999.32 999.44 999.60 999.80 999.92 1000.08 1000.28 1000.48 1000.64 1000.76 1000.88
1004.88 1004.64 1004.44 1004.16 1003.84 1003.56 1003.20 1002.80 1002.40 1001.92 1001.52 1001.16 1000.80 1000.56 1000.32 1000.16 1000.08 1000.08 1000.04 999.96 999.84 999.80 999.72 999.56 999.44 999.40 999.36 999.28 999.24 999.20 999.16 999.04 999.00 999.00 999.00 998.88 998.72 998.56 998.44 998.36 998.36 998.40 998.44 998.48 998.44 998.44 998.44 998.44 998.44 998.52 998.60 998.72 998.80 998.88 998.92 998.88 998.88 998.88 998.92 999.08 999.28 999.40 999.56 999.72 999.92 1000.16 1000.32 1000.48 1000.56
1005.16 1004.88 1004.68 1004.44 1004.16 1003.88 1003.56 1003.24 1002.88 1002.44 1002.00 1001.48 1001.00 1000.56 1000.28 1000.12 1000.00 999.84 999.72 999.56 999.44 999.32 999.24 999.16 999.12 999.08 999.00 998.88 998.84 998.72 998.60 998.52 998.48 998.52 998.48 998.36 998.28 998.12 998.00 997.92 997.96 998.00 998.04 998.04 998.04 998.00 998.04 998.08 998.16 998.16 998.24 998.28 998.32 998.40 998.48 998.52 998.44 998.40 998.44 998.64 998.88 999.04 999.20 999.40 999.56 999.80 1000.04 1000.20 1000.28
1005.52 1005.24 1005.00 1004.72 1004.44 1004.16 1003.84 1003.52 1003.16 1002.80 1002.40 1001.92 1001.44 1000.96 1000.56 1000.24 1000.04 999.76 999.48 999.28 999.12 999.00 998.88 998.80 998.80 998.76 998.68 998.56 998.44 998.28 998.16 998.08 998.04 998.00 997.96 997.88 997.84 997.72 997.56 997.56 997.52 997.56 997.60 997.60 997.64 997.64 997.68 997.72 997.76 997.80 997.84 997.84 997.88 997.96 998.04 998.08 998.04 998.00 998.00 998.16 998.40 998.64 998.84 999.00 999.16 999.40 999.60 999.84 1000.00
1005.84 1005.56 1005.28 1005.04 1004.72 1004.44 1004.16 1003.80 1003.44 1003.08 1002.72 1002.24 1001.76 1001.28 1000.88 1000.52 1000.20 999.88 999.64 999.36 999.04 998.80 998.68 998.60 998.52 998.44 998.28 998.16 998.04 997.92 997.84 997.72 997.60 997.52 997.44 997.44 997.36 997.28 997.16 997.08 997.12 997.16 997.16 997.20 997.24 997.28 997.28 997.28 997.32 997.36 997.36 997.40 997.44 997.52 997.56 997.64 997.68 997.68 997.68 997.72 997.96 998.20 998.44 998.60 998.80 999.00 999.16 999.40 999.64
1006.12 1005.84 1005.60 1005.32 1005.00 1004.72 1004.44 1004.12 1003.76 1003.40 1002.96 1002.52 1001.96 1001.44 1001.04 1000.68 1000.36 1000.12 999.92 999.64 999.28 999.00 998.76 998.60 998.48 998.36 998.16 997.88 997.72 997.56 997.44 997.32 997.20 997.08 997.00 996.92 996.84 996.72 996.68 996.64 996.68 996.72 996.72 996.76 996.80 996.80 996.80 996.84 996.88 996.88 996.96 997.00 997.04 997.12 997.16 997.24 997.32 997.32 997.36 997.44 997.56 997.76 997.96 998.20 998.40 998.56 998.76 999.00 999.28
1006.40 1006.12 1005.84 1005.56 1005.28 1005.00 1004.68 1004.32 1004.00 1003.60 1003.16 1002.68 1002.16 1001.64 1001.20 1000.84 1000.56 1000.36 1000.16 999.96 999.72 999.48 999.24 999.04 998.88 998.72 998.44 998.08 997.72 997.40 997.16 997.00 996.88 996.72 996.56 996.40 996.28 996.24 996.24 996.28 996.28 996.28 996.32 996.32 996.32 996.36 996.40 996.40 996.44 996.48 996.52 996.56 996.64 996.72 996.76 996.84 996.88 996.96 997.04 997.16 997.24 997.36 997.56 997.76 998.00 998.16 998.40 998.64 998.88
1006.68 1006.32 1006.00 1005.72 1005.40 1005.12 1004.80 1004.48 1004.16 1003.76 1003.32 1002.80 1002.28 1001.84 1001.44 1001.16 1000.88 1000.60 1000.36 1000.12 999.88 999.68 999.48 999.36 999.28 999.16 998.88 998.56 998.12 997.60 997.16 996.88 996.64 996.44 996.16 995.92 995.84 995.80 995.84 995.92 995.92 995.92 995.92 995.88 995.92 995.96 996.00 996.00 996.04 996.08 996.12 996.16 996.24 996.28 996.36 996.40 996.48 996.56 996.72 996.84 996.92 997.04 997.16 997.36 997.56 997.76 998.00 998.28 998.56
1006.96 1006.56 1006.20 1005.84 1005.52 1005.16 1004.80 1004.48 1004.16 1003.76 1003.36 1003.00 1002.56 1002.20 1001.84 1001.48 1001.16 1000.80 1000.48 1000.16 999.92 999.76 999.72 999.60 999.48 999.28 999.00 998.72 998.36 997.92 997.48 997.12 996.80 996.44 996.04 995.64 995.48 995.48 995.56 995.60 995.64 995.60 995.56 995.56 995.56 995.52 995.48 995.56 995.60 995.60 995.64 995.72 995.76 995.84 995.88 995.96 996.04 996.20 996.32 996.44 996.56 996.72 996.88 997.00 997.20 997.40 997.64 998.00 998.28
1007.28 1006.88 1006.48 1006.08 1005.72 1005.28 1004.88 1004.48 1004.08 1003.72 1003.44 1003.12 1002.80 1002.44 1002.12 1001.76 1001.44 1001.04 1000.72 1000.36 1000.16 1000.00 999.88 999.72 999.52 999.28 999.00 998.72 998.44 998.08 997.72 997.48 997.24 996.88 996.36 995.80 995.40 995.16 995.16 995.24 995.28 995.28 995.24 995.16 995.12 995.08 995.04 995.04 995.12 995.16 995.20 995.24 995.28 995.36 995.44 995.52 995.60 995.72 995.88 996.00 996.20 996.40 996.56 996.72 996.92 997.12 997.32 997.64 997.92
1007.68 1007.24 1006.84 1006.40 1006.00 1005.56 1005.16 1004.72 1004.36 1004.00 1003.64 1003.28 1002.92 1002.56 1002.28 1001.96 1001.60 1001.24 1000.92 1000.64 1000.44 1000.24 1000.00 999.76 999.60 999.44 999.24 998.96 998.56 998.28 998.04 997.88 997.68 997.40 997.00 996.52 995.84 995.28 994.96 995.00 995.04 995.04 995.00 994.92 994.80 994.68 994.60 994.60 994.68 994.72 994.84 994.88 994.96 995.00 995.08 995.12 995.20 995.32 995.44 995.60 995.80 996.00 996.24 996.44 996.64 996.84 997.04 997.28 997.56
1008.00 1007.64 1007.24 1006.80 1006.40 1006.00 1005.60 1005.20 1004.84 1004.44 1004.00 1003.64 1003.20 1002.84 1002.44 1002.08 1001.72 1001.32 1001.00 1000.80 1000.60 1000.32 1000.00 999.84 999.72 999.64 999.44 999.16 998.88 998.60 998.44 998.32 998.04 997.84 997.56 997.24 996.80 996.28 995.72 995.28 995.24 995.36 995.48 995.44 995.00 994.60 994.36 994.32 994.32 994.40 994.44 994.56 994.64 994.72 994.76 994.88 994.92 995.00 995.16 995.32 995.48 995.64 995.84 996.04 996.28 996.48 996.72 997.00 997.28
1008.40 1008.00 1007.60 1007.16 1006.80 1006.44 1006.08 1005.64 1005.24 1004.84 1004.44 1004.00 1003.60 1003.20 1002.72 1002.28 1001.84 1001.44 1001.12 1000.88 1000.52 1000.24 1000.00 999.96 999.88 999.72 999.52 999.28 999.16 999.00 998.84 998.64 998.44 998.16 997.92 997.72 997.44 997.16 996.96 996.72 996.52 996.56 996.64 996.44 995.72 995.08 994.60 994.28 994.16 994.16 994.16 994.20 994.32 994.44 994.48 994.56 994.64 994.76 994.88 995.00 995.16 995.32 995.48 995.72 995.96 996.20 996.48 996.80 997.12
1008.72 1008.32 1007.92 1007.56 1007.16 1006.80 1006.40 1006.00 1005.60 1005.20 1004.80 1004.44 1004.00 1003.56 1003.16 1002.68 1002.24 1001.84 1001.48 1001.12 1000.72 1000.56 1000.52 1000.44 1000.32 1000.08 999.84 999.64 999.44 999.28 999.12 998.92 998.72 998.48 998.20 997.96 997.76 997.64 997.56 997.48 997.24 997.00 996.72 996.28 995.84 995.48 995.08 994.68 994.32 994.16 994.08 994.04 994.08 994.16 994.28 994.32 994.40 994.52 994.64 994.80 994.96 995.12 995.28 995.48 995.76 996.12 996.44 996.72 997.00
1009.04 1008.64 1008.24 1007.84 1007.52 1007.16 1006.76 1006.36 1006.00 1005.60 1005.20 1004.80 1004.40 1003.96 1003.52 1003.12 1002.72 1002.44 1002.12 1001.84 1001.64 1001.56 1001.44 1001.28 1001.00 1000.76 1000.52 1000.24 999.96 999.68 999.44 999.24 999.00 998.76 998.48 998.20 998.04 997.96 997.84 997.68 997.44 997.16 996.88 996.48 996.12 995.72 995.40 995.08 994.72 994.40 994.16 994.08 994.04 994.04 994.16 994.24 994.32 994.44 994.56 994.72 994.88 995.00 995.20 995.44 995.68 996.00 996.24 996.44 996.72
1009.44 1009.04 1008.60 1008.16 1007.80 1007.44 1007.12 1006.72 1006.36 1005.96 1005.56 1005.12 1004.72 1004.28 1003.92 1003.56 1003.28 1003.00 1002.80 1002.56 1002.44 1002.24 1002.04 1001.80 1001.56 1001.32 1001.08 1000.84 1000.52 1000.24 999.92 999.60 999.28 999.04 998.80 998.64 998.44 998.28 998.12 997.80 997.52 997.24 996.96 996.68 996.40 996.16 995.84 995.56 995.24 994.88 994.52 994.28 994.12 994.12 994.16 994.24 994.32 994.44 994.52 994.60 994.76 994.88 995.04 995.24 995.44 995.64 995.88 996.16 996.40
1009.80 1009.36 1008.92 1008.52 1008.16 1007.76 1007.44 1007.08 1006.72 1006.28 1005.88 1005.48 1005.04 1004.68 1004.32 1004.04 1003.84 1003.56 1003.32 1003.08 1002.88 1002.60 1002.32 1002.08 1001.84 1001.56 1001.36 1001.16 1000.92 1000.68 1000.40 1000.12 999.80 999.52 999.28 999.04 998.84 998.60 998.32 998.04 997.72 997.48 997.24 997.00 996.72 996.48 996.24 995.92 995.64 995.40 995.08 994.72 994.36 994.16 994.16 994.20 994.28 994.36 994.44 994.48 994.56 994.68 994.80 994.96 995.16 995.32 995.56 995.84 996.08
1010.08 1009.68 1009.28 1008.84 1008.44 1008.08 1007.72 1007.36 1007.00 1006.60 1006.24 1005.84 1005.44 1005.08 1004.72 1004.44 1004.16 1003.88 1003.64 1003.40 1003.16 1002.92 1002.68 1002.44 1002.16 1001.96 1001.72 1001.48 1001.28 1001.04 1000.84 1000.60 1000.36 1000.08 999.80 999.52 999.20 998.88 998.56 998.28 998.00 997.80 997.56 997.24 997.00 996.72 996.48 996.16 995.88 995.60 995.36 995.20 994.88 994.48 994.24 994.16 994.16 994.28 994.36 994.44 994.52 994.56 994.64 994.72 994.88 995.08 995.28 995.56 995.80
1010.32 1009.96 1009.56 1009.16 1008.76 1008.40 1008.04 1007.68 1007.28 1006.92 1006.52 1006.16 1005.76 1005.44 1005.08 1004.76 1004.44 1004.16 1003.92 1003.72 1003.48 1003.28 1003.00 1002.80 1002.56 1002.32 1002.08 1001.84 1001.60 1001.36 1001.16 1000.92 1000.72 1000.48 1000.20 999.84 999.52 999.16 998.80 998.56 998.32 998.16 997.88 997.56 997.28 997.00 996.72 996.44 996.16 995.84 995.60 995.40 995.16 994.92 994.60 994.32 994.16 994.16 994.24 994.32 994.40 994.48 994.56 994.60 994.72 994.88 995.08 995.32 995.56
1010.60 1010.20 1009.80 1009.44 1009.04 1008.68 1008.32 1007.96 1007.56 1007.20 1006.84 1006.44 1006.12 1005.76 1005.44 1005.12 1004.84 1004.56 1004.28 1004.00 1003.72 1003.48 1003.28 1003.00 1002.80 1002.56 1002.28 1002.04 1001.80 1001.56 1001.36 1001.16 1000.92 1000.72 1000.48 1000.20 999.84 999.44 999.12 998.88 998.68 998.44 998.20 997.92 997.64 997.36 997.04 996.76 996.44 996.20 996.00 995.76 995.56 995.32 995.04 994.72 994.40 994.20 994.12 994.12 994.24 994.32 994.40 994.48 994.60 994.76 994.96 995.16 995.44
1010.88 1010.48 1010.08 1009.68 1009.32 1008.96 1008.60 1008.28 1007.84 1007.48 1007.12 1006.72 1006.44 1006.08 1005.76 1005.48 1005.16 1004.88 1004.60 1004.32 1004.00 1003.72 1003.44 1003.20 1002.92 1002.68 1002.44 1002.20 1001.96 1001.76 1001.56 1001.40 1001.16 1000.88 1000.68 1000.40 1000.08 999.80 999.52 999.28 999.04 998.84 998.56 998.32 998.04 997.76 997.44 997.16 996.84 996.56 996.32 996.16 996.00 995.84 995.56 995.28 994.88 994.52 994.28 994.12 994.08 994.16 994.28 994.44 994.56 994.68 994.88 995.08 995.28
1011.16 1010.80 1010.40 1010.00 1009.60 1009.28 1008.92 1008.56 1008.16 1007.80 1007.44 1007.08 1006.76 1006.44 1006.16 1005.84 1005.48 1005.20 1004.88 1004.56 1004.24 1003.92 1003.64 1003.44 1003.16 1002.92 1002.72 1002.52 1002.28 1002.08 1001.88 1001.64 1001.40 1001.12 1000.84 1000.56 1000.32 1000.08 999.84 999.64 999.40 999.16 998.96 998.72 998.44 998.16 997.84 997.56 997.28 997.00 996.76 996.56 996.40 996.24 996.00 995.80 995.48 995.12 994.72 994.44 994.16 994.12 994.20 994.36 994.48 994.64 994.84 995.00 995.24
1011.44 1011.08 1010.72 1010.28 1009.92 1009.56 1009.20 1008.88 1008.48 1008.16 1007.76 1007.44 1007.16 1006.84 1006.52 1006.16 1005.84 1005.52 1005.20 1004.88 1004.56 1004.24 1003.96 1003.72 1003.48 1003.28 1003.08 1002.88 1002.60 1002.36 1002.16 1001.88 1001.68 1001.40 1001.12 1000.88 1000.60 1000.40 1000.16 999.88 999.68 999.48 999.28 999.04 998.76 998.48 998.20 997.96 997.72 997.44 997.24 997.04 996.84 996.60 996.44 996.20 996.00 995.76 995.44 995.04 994.72 994.44 994.32 994.40 994.48 994.64 994.80 995.00 995.20
1011.72 1011.40 1011.00 1010.64 1010.24 1009.84 1009.48 1009.16 1008.80 1008.44 1008.12 1007.76 1007.44 1007.12 1006.80 1006.48 1006.16 1005.88 1005.60 1005.28 1004.96 1004.60 1004.32 1004.04 1003.80 1003.60 1003.40 1003.16 1002.88 1002.56 1002.32 1002.12 1001.92 1001.72 1001.44 1001.20 1001.00 1000.76 1000.52 1000.20 999.96 999.72 999.48 999.28 999.00 998.72 998.44 998.24 998.00 997.84 997.72 997.52 997.32 997.12 996.88 996.60 996.40 996.20 996.00 995.80 995.48 995.16 994.92 994.84 994.76 994.76 994.80 994.92 995.16
1011.96 1011.64 1011.28 1010.92 1010.56 1010.16 1009.76 1009.40 1009.08 1008.76 1008.44 1008.08 1007.72 1007.44 1007.12 1006.84 1006.56 1006.24 1005.96 1005.56 1005.24 1004.88 1004.56 1004.28 1004.04 1003.84 1003.60 1003.36 1003.16 1002.88 1002.56 1002.28 1002.12 1001.92 1001.72 1001.56 1001.28 1001.04 1000.84 1000.56 1000.28 1000.00 999.72 999.52 999.28 999.00 998.76 998.56 998.32 998.16 998.04 997.88 997.72 997.52 997.28 997.04 996.80 996.56 996.36 996.24 996.04 995.84 995.72 995.56 995.40 995.28 995.12 995.04 995.16
1012.16 1011.84 1011.48 1011.16 1010.76 1010.40 1010.00 1009.68 1009.32 1009.00 1008.64 1008.28 1008.00 1007.72 1007.44 1007.16 1006.84 1006.52 1006.20 1005.88 1005.56 1005.20 1004.88 1004.56 1004.28 1004.00 1003.76 1003.52 1003.32 1003.04 1002.76 1002.52 1002.32 1002.16 1002.00 1001.80 1001.56 1001.36 1001.16 1000.88 1000.64 1000.36 1000.04 999.84 999.56 999.32 999.12 998.88 998.68 998.48 998.36 998.24 998.08 997.88 997.68 997.44 997.16 996.96 996.76 996.60 996.44 996.28 996.16 996.00 995.88 995.80 995.68 995.56 995.44
Wind_Speed
13 12 10 10 9 9 8 8 9 9 9 9 10 10 10 10 10 10 10 10 10 10 10 10 11 11 13 16 18 18 18 19 20 20 21 21 21 21 20 20 19 20 20 21 21 20 19 19 16 14 12 13 14 13 13 11 13 15 17 17 15 15 16 17 18 20 22 21 17
14 14 12 11 10 9 8 8 8 9 9 9 9 10 10 10 10 10 10 11 10 10 10 10 12 13 15 18 18 19 19 19 21 21 22 22 22 21 20 19 20 20 21 21 21 19 17 18 16 14 13 13 14 14 13 12 12 15 18 20 17 15 14 15 16 19 20 20 18
14 13 13 12 11 10 9 9 9 10 11 11 10 10 10 10 10 10 10 11 11 12 11 11 11 14 17 18 18 18 18 19 21 21 21 21 22 22 21 19 21 21 21 20 19 18 17 18 16 14 13 13 15 15 14 13 13 15 17 21 17 14 13 13 14 15 16 15 16
13 13 13 13 14 14 12 10 11 12 12 11 11 11 11 10 10 10 11 12 13 12 12 11 11 12 14 16 17 18 18 18 20 21 21 21 22 22 23 21 22 22 21 20 20 20 20 20 15 13 14 16 18 17 14 12 13 14 14 17 15 14 13 12 13 13 13 13 14
13 13 12 13 15 15 14 12 13 13 12 10 10 10 10 10 10 11 11 11 11 12 12 13 12 11 12 15 18 19 20 20 20 19 19 20 21 22 22 22 22 21 20 20 21 21 21 21 15 12 13 16 16 15 14 13 14 14 14 14 14 14 14 12 12 12 12 13 12
12 12 13 12 14 14 13 13 14 14 13 11 11 12 11 10 10 11 12 12 12 14 15 15 14 13 14 17 19 20 20 20 19 18 18 19 19 20 21 22 22 20 19 19 20 21 20 19 14 12 12 13 14 15 15 16 15 14 14 15 15 14 13 13 12 12 12 14 14
11 12 12 13 14 14 13 13 14 13 13 12 14 15 15 13 13 14 14 14 14 14 14 13 13 15 16 18 18 19 19 18 19 19 20 19 20 20 20 20 20 20 20 19 20 20 19 18 14 12 11 12 12 14 17 17 16 15 15 16 14 13 13 15 13 12 13 16 18
11 11 12 12 13 14 14 15 14 13 13 12 14 17 18 18 17 17 16 15 14 13 12 10 13 16 18 18 18 18 18 19 19 20 20 20 21 21 20 20 19 20 20 19 19 19 18 16 13 12 12 11 11 13 16 19 19 18 17 17 15 14 13 14 13 13 15 19 20
10 11 12 12 13 13 14 15 15 15 15 15 16 18 19 19 19 19 17 15 13 12 11 11 14 17 20 21 20 19 18 17 18 19 19 20 20 20 20 19 20 20 20 19 19 20 19 16 13 12 12 12 12 13 15 20 21 21 19 17 16 15 14 14 15 15 17 19 21
10 11 11 12 13 14 15 15 15 16 17 17 19 19 19 19 19 18 16 14 13 13 13 13 15 17 19 21 20 19 18 16 17 18 19 19 20 20 20 19 19 20 20 19 19 20 20 17 16 15 15 14 15 16 18 20 22 22 20 15 16 17 16 16 17 18 18 19 22
12 12 12 12 13 14 14 15 15 16 16 17 19 19 19 19 19 18 17 15 14 15 16 16 16 17 18 19 18 18 17 16 16 17 18 19 20 21 21 20 20 21 21 20 19 18 17 16 17 19 20 18 18 18 20 21 22 23 22 17 18 19 19 19 18 18 19 19 22
13 13 13 13 14 14 15 15 14 15 16 18 19 19 19 19 19 19 18 17 18 18 19 18 18 18 17 16 17 17 17 17 17 18 19 20 21 22 22 22 22 22 22 22 19 17 15 16 18 20 22 22 18 17 18 21 23 24 24 22 21 20 19 20 20 18 17 19 22
13 14 14 14 15 15 15 14 13 13 15 17 18 18 18 18 19 19 19 19 19 18 17 18 18 18 17 16 16 16 17 17 18 19 20 21 21 22 23 23 23 23 23 21 20 18 17 17 19 21 22 22 19 17 18 22 23 24 25 25 23 21 20 21 21 20 19 20 21
13 13 13 14 15 15 15 14 13 12 14 16 17 16 16 16 17 18 18 18 18 18 17 17 16 16 16 17 17 17 18 18 19 21 21 22 22 22 23 23 23 23 22 20 20 20 20 20 21 21 21 21 20 20 21 23 24 25 26 26 25 23 22 21 21 21 21 22 22
16 15 15 14 14 13 13 14 13 13 14 16 15 15 14 14 14 15 16 16 17 17 16 15 14 15 16 18 19 19 20 20 21 21 22 22 23 23 24 23 23 22 21 19 20 21 23 24 23 21 20 20 22 23 23 24 24 25 25 26 26 25 23 21 22 22 22 22 22
17 17 17 17 16 15 13 13 12 12 14 15 15 15 14 13 13 13 14 15 15 15 14 15 15 15 16 18 20 21 21 21 21 22 22 22 23 24 24 24 23 22 21 21 21 21 22 23 21 21 21 21 22 24 25 25 24 24 25 26 26 25 24 22 22 22 21 22 22
17 17 17 17 17 16 16 14 13 12 12 14 14 14 14 14 13 14 14 15 14 14 15 16 15 15 15 17 18 20 20 21 21 21 21 21 23 23 24 23 22 22 21 21 21 21 21 21 20 20 21 22 22 23 25 26 25 24 24 25 25 24 24 22 22 22 21 21 22
18 17 17 17 17 16 16 15 14 14 14 14 13 12 11 12 14 15 16 16 15 15 16 17 16 16 16 17 17 17 18 19 19 19 19 20 21 22 22 22 21 21 20 20 20 20 21 21 21 20 20 21 21 22 24 26 25 24 24 24 24 24 23 23 23 22 21 21 22
17 17 17 17 17 17 16 16 15 14 14 13 12 11 10 9 10 11 12 13 14 16 17 18 17 16 16 18 17 17 16 17 19 19 19 20 20 20 20 20 20 20 20 20 20 21 21 21 21 21 20 20 20 22 23 26 25 24 23 24 24 24 24 24 23 23 22 22 23
17 17 17 17 17 17 16 16 15 14 13 12 12 11 11 11 11 11 11 11 11 13 15 17 17 17 17 18 19 18 17 16 17 19 19 20 20 20 20 20 20 20 20 20 20 21 21 21 21 21 20 20 20 22 24 26 25 24 23 22 24 25 25 24 24 24 23 23 23
18 17 17 17 17 16 16 15 15 14 13 12 12 11 11 11 12 12 13 13 13 11 11 12 14 16 18 19 20 20 18 15 16 18 19 19 20 20 20 20 20 20 19 19 19 20 21 21 21 21 20 20 21 22 24 25 24 23 22 21 22 23 24 24 24 24 24 23 23
18 17 16 16 16 16 15 15 14 14 13 13 13 13 12 12 12 12 12 12 13 13 13 12 12 13 14 15 16 17 17 16 17 18 18 18 18 19 19 19 19 19 19 19 19 20 21 21 22 21 21 21 22 23 23 22 22 21 21 21 21 22 23 23 23 24 23 23 23
19 17 16 15 16 16 15 14 13 14 14 15 15 15 14 13 13 12 12 12 13 13 14 13 13 14 15 14 13 12 12 13 15 18 19 19 18 18 17 17 18 19 19 19 19 20 20 21 21 21 22 21 23 23 23 22 21 21 21 22 21 22 22 22 22 23 23 22 22
20 19 17 15 17 17 16 15 14 15 16 17 17 16 15 14 14 14 14 14 14 14 14 12 12 12 14 15 16 17 16 15 13 14 16 19 20 19 18 16 17 18 19 18 18 19 19 18 18 19 20 21 22 22 23 23 22 22 22 22 21 21 21 21 21 22 22 22 20
21 20 19 18 19 19 18 18 18 18 18 18 17 17 16 15 15 15 15 16 15 15 15 14 13 13 13 14 15 17 18 19 19 19 17 16 16 18 18 16 15 15 16 16 19 21 21 19 17 17 17 18 19 20 21 22 22 22 21 21 21 20 20 20 20 21 21 21 19
20 20 20 20 20 20 20 20 20 20 19 19 18 18 17 16 15 15 16 16 15 15 15 15 15 14 14 14 15 17 17 17 18 20 21 20 16 12 12 14 12 10 10 11 15 19 21 22 20 18 16 16 16 16 17 18 20 20 20 19 19 19 19 19 19 19 19 18 18
19 19 19 19 19 20 20 20 19 19 19 19 19 18 18 17 16 16 17 17 16 15 15 15 14 13 13 13 16 17 17 15 16 17 19 21 22 20 16 8 6 5 6 9 7 11 16 19 19 18 16 15 14 14 13 14 16 17 18 17 17 17 18 18 18 17 17 16 17
19 19 19 19 19 19 19 19 18 18 18 18 18 18 18 18 19 19 19 19 19 18 17 15 14 13 12 12 15 17 17 16 15 15 16 17 19 21 21 18 15 14 17 24 21 13 9 14 15 15 15 13 12 11 11 11 12 13 13 13 13 14 15 15 15 15 16 17 17
20 19 19 19 19 18 18 18 18 18 18 17 17 18 18 19 20 20 21 21 22 20 18 15 14 13 14 15 16 17 17 17 15 14 15 16 17 16 16 15 15 18 22 29 29 24 16 10 11 13 12 11 9 8 8 8 8 9 9 10 11 12 13 13 13 14 16 17 17
21 20 19 19 19 18 18 18 18 18 17 16 17 18 18 19 19 19 20 20 20 18 16 14 14 15 16 17 16 16 16 16 15 15 16 17 17 16 14 13 13 16 21 29 29 29 25 17 9 10 12 11 8 6 6 6 7 8 8 9 11 12 14 14 15 16 16 15 16
21 20 20 19 19 19 19 19 18 18 17 17 18 18 18 18 18 18 17 17 16 15 14 14 15 16 16 15 15 16 16 16 17 17 17 18 17 16 16 15 16 19 23 30 29 29 28 26 18 11 9 12 9 7 6 7 7 8 8 9 12 14 15 15 16 16 16 15 15
21 20 20 20 19 19 19 19 18 18 18 19 19 19 18 18 17 16 15 14 14 15 15 15 16 16 16 15 15 15 16 17 17 18 18 18 17 17 16 15 17 20 24 30 29 28 27 27 25 20 14 10 9 8 8 8 8 9 9 10 13 14 15 14 14 15 16 16 15
20 20 20 20 20 19 19 19 18 18 18 19 19 19 18 18 17 16 15 14 14 14 15 15 15 15 15 15 15 15 15 15 16 17 18 18 17 17 16 15 15 19 25 30 29 29 28 27 26 25 22 16 9 7 8 9 9 9 9 10 12 13 15 15 14 14 16 16 15
20 20 20 20 20 19 19 19 19 18 18 19 19 19 18 18 18 17 16 14 13 13 13 13 14 14 14 14 14 14 14 13 14 15 16 17 17 17 17 15 13 19 26 30 30 29 29 28 27 26 23 19 12 8 7 7 8 9 10 11 11 12 13 14 14 14 15 15 13
21 20 20 20 20 19 19 20 19 19 19 19 19 19 19 18 18 17 16 15 14 13 13 14 13 13 13 13 14 14 15 15 15 15 16 16 17 17 18 17 15 20 27 30 30 29 29 29 28 26 23 17 12 11 10 8 6 7 10 12 12 12 12 12 12 12 13 13 13
21 20 20 20 20 20 20 20 20 19 19 19 19 19 19 18 17 17 16 15 15 15 15 15 15 15 15 15 14 14 15 16 16 16 16 16 17 18 18 17 17 21 25 29 29 29 29 29 28 26 22 15 11 11 11 11 8 5 5 9 10 12 12 11 10 10 10 11 11
20 21 21 20 20 20 20 20 20 20 19 19 19 18 18 17 17 16 16 16 15 16 16 15 16 16 16 15 14 14 15 15 16 17 17 17 18 18 18 17 17 19 22 27 28 28 28 28 28 26 21 13 11 10 10 10 10 8 6 3 5 8 10 9 9 9 10 10 11
21 21 21 21 20 20 20 19 20 20 19 19 18 17 17 16 15 16 16 15 15 15 15 15 16 16 15 15 14 14 15 15 16 17 17 17 18 18 18 18 18 18 19 24 27 28 28 27 27 25 21 13 11 10 9 8 9 9 10 8 4 2 4 5 6 8 9 11 11
20 20 20 20 20 20 19 20 19 19 19 18 18 17 17 16 15 15 15 15 15 15 15 15 16 15 15 15 14 14 15 15 16 16 16 16 17 17 17 18 18 17 19 23 26 27 27 27 26 25 21 14 11 9 8 7 7 8 8 9 9 7 5 3 1 3 6 11 12
19 19 19 19 19 19 19 19 19 19 18 18 18 17 16 16 15 15 15 14 15 14 14 14 15 15 15 14 14 14 15 15 16 16 16 16 16 16 17 17 17 18 19 21 25 26 27 27 26 25 21 13 11 9 7 7 7 7 7 7 7 7 8 8 6 4 2 4 9
18 18 19 19 18 18 18 19 19 18 18 17 18 16 15 15 15 15 15 14 15 15 13 13 15 16 16 14 13 14 15 16 16 16 15 15 15 15 15 16 17 17 18 19 23 25 26 27 26 25 21 14 11 9 7 7 7 7 7 7 6 5 6 6 6 6 6 5 3
Wind_Direction
225 226 226 227 227 227 228 228 229 230 231 232 232 232 232 232 233 233 233 233 235 236 237 238 237 237 236 233 233 233 234 235 236 236 236 235 233 230 227 225 225 226 228 230 231 233 233 232 232 232 232 230 226 222 217 214 216 217 216 213 210 205 199 191 190 192 194 195 194
224 226 227 227 228 230 231 230 229 229 229 230 232 233 233 233 234 234 233 233 234 235 237 238 239 239 238 235 233 231 231 232 233 235 235 235 234 232 229 226 225 225 227 229 230 231 231 229 229 229 230 231 227 223 218 211 211 215 217 215 212 208 203 196 193 192 193 195 196
224 225 226 227 228 229 231 233 232 230 229 229 229 230 232 233 234 234 234 234 234 235 236 238 238 240 240 240 237 233 231 231 231 232 234 234 234 232 230 228 226 226 226 227 228 230 230 229 227 227 227 229 227 224 219 212 210 213 216 216 212 209 204 201 196 194 193 195 196
226 226 227 228 229 230 231 234 236 235 233 231 229 229 230 232 233 235 236 237 237 237 237 237 239 240 241 242 240 238 236 233 233 234 234 234 233 232 231 230 229 228 227 226 227 228 230 230 228 226 226 229 229 226 220 213 209 211 215 216 213 210 206 202 197 196 195 195 196
228 228 228 229 230 231 232 234 237 238 238 236 234 232 230 229 231 234 236 237 236 237 238 239 239 239 238 239 241 241 240 238 237 236 237 237 236 235 233 231 231 230 229 227 226 227 227 228 228 228 227 228 228 225 221 214 211 212 215 217 215 211 205 200 196 196 196 195 194
230 231 232 233 233 233 234 235 237 238 240 241 240 238 236 232 230 230 231 233 235 237 238 240 241 240 240 238 239 239 240 240 239 239 239 240 240 239 237 236 234 233 231 230 228 227 226 225 227 228 228 228 225 223 219 215 212 212 214 217 215 209 203 198 194 193 194 194 192
235 235 235 236 237 238 238 238 238 239 241 243 242 242 240 238 236 234 233 234 236 237 237 237 239 240 240 238 237 237 238 240 241 240 240 240 241 241 240 239 237 236 234 232 231 230 227 224 225 226 227 229 227 221 217 214 212 211 213 215 213 208 201 197 193 191 193 194 191
240 240 239 239 240 242 243 242 242 242 242 242 242 242 242 242 241 241 240 241 242 241 240 239 239 240 240 238 235 235 235 238 241 242 242 241 241 241 241 239 238 237 236 234 233 231 229 225 224 223 224 226 228 222 216 212 211 211 212 213 212 208 202 197 193 193 194 195 193
240 240 241 240 240 241 243 244 245 245 245 245 245 244 244 244 243 243 244 245 246 246 246 246 244 244 242 240 236 233 232 234 238 241 243 243 242 242 241 240 238 236 235 233 232 231 229 228 226 223 221 223 225 222 217 211 210 210 211 213 213 209 203 197 194 194 195 195 195
242 241 241 241 240 240 241 242 244 245 247 248 248 247 246 246 245 244 243 243 245 245 245 244 244 244 244 243 238 233 229 230 234 237 240 242 243 243 242 240 238 236 234 232 231 229 229 229 228 226 224 223 223 223 220 214 211 210 211 214 213 209 203 196 194 194 194 195 197
251 247 244 242 241 241 240 241 242 243 244 246 247 248 247 247 245 244 242 241 241 241 241 240 239 241 243 244 239 233 229 228 230 233 236 239 241 242 242 241 239 237 235 233 230 228 227 226 228 229 228 226 223 222 221 218 213 211 211 214 213 210 205 198 195 194 194 196 197
259 256 253 249 246 244 243 241 241 241 242 243 245 245 245 245 244 243 243 241 241 241 240 237 236 237 239 242 239 235 231 229 230 232 234 236 238 239 240 239 238 237 235 233 231 228 226 224 226 228 229 227 223 221 220 219 216 213 212 213 213 211 207 201 197 196 195 195 196
273 269 265 261 257 254 250 247 245 243 243 243 243 243 242 241 241 242 242 244 244 244 241 238 235 235 236 237 237 235 232 230 231 232 233 234 236 236 237 237 236 234 233 232 231 229 228 226 225 226 227 227 223 220 218 218 216 214 212 212 211 210 207 203 200 198 196 195 196
313 302 293 285 276 269 263 257 252 248 246 246 244 243 241 240 240 240 241 243 244 245 244 241 236 233 232 232 233 232 231 231 232 232 233 233 233 234 234 234 233 233 232 231 231 230 230 229 227 226 226 227 225 221 218 217 215 213 212 211 211 209 207 204 202 200 198 197 197
352 345 336 326 311 297 282 270 263 257 253 250 248 245 242 240 239 239 240 242 243 244 243 241 238 234 232 231 232 232 232 233 233 233 234 234 233 232 232 232 232 232 232 232 231 230 230 231 229 228 227 228 228 225 221 216 213 212 211 211 211 210 207 204 202 201 200 199 199
3 359 354 349 341 332 319 302 289 277 268 262 256 251 246 244 242 241 242 243 244 244 244 241 238 236 235 235 234 234 234 234 234 235 236 236 234 233 232 232 231 231 231 232 232 231 231 231 231 229 228 228 229 227 223 217 212 209 209 210 210 209 207 204 202 202 202 201 201
4 1 358 355 351 347 341 333 325 313 301 289 276 266 258 253 252 251 249 246 244 244 244 243 240 239 239 238 236 235 234 234 234 235 236 237 235 234 233 232 231 231 231 232 233 233 232 231 230 229 228 227 227 226 224 219 212 208 206 208 209 209 208 205 203 203 203 204 204
3 1 358 355 353 349 345 341 337 333 329 323 312 298 284 273 269 264 259 252 248 246 246 246 246 245 244 242 239 236 234 233 233 234 236 237 236 235 234 233 232 231 230 231 232 232 232 231 229 228 226 225 224 224 223 220 214 208 205 205 207 208 208 207 205 204 204 205 207
0 359 357 355 352 349 346 343 341 339 337 337 338 339 336 326 309 294 281 268 258 252 249 249 248 247 246 245 243 240 237 235 235 235 236 238 237 236 233 231 230 230 229 230 230 231 231 230 228 226 224 223 222 222 222 221 217 211 206 204 206 208 209 209 207 206 205 206 207
358 357 356 353 350 348 346 344 343 341 340 339 345 354 1 4 358 349 336 319 297 276 262 254 251 249 247 245 244 242 241 239 238 238 238 237 236 234 232 231 230 230 229 229 229 230 230 230 228 226 224 222 221 220 221 220 218 213 208 205 206 208 208 209 208 207 206 206 206
357 355 354 352 350 348 346 343 342 342 343 344 350 358 5 11 11 8 2 354 346 332 311 288 277 269 262 255 250 246 244 243 243 242 240 238 236 234 233 233 232 232 230 229 229 230 230 230 229 227 225 222 220 218 218 217 215 212 208 206 206 206 207 207 207 207 206 205 205
354 353 352 351 350 348 345 342 341 343 347 351 356 1 6 11 15 14 12 10 11 10 6 357 342 324 306 289 274 262 254 249 246 244 241 239 237 236 235 235 235 234 232 231 230 230 230 230 229 227 224 221 218 216 214 212 211 209 208 207 206 205 205 204 204 205 205 205 204
352 350 350 349 349 347 345 343 344 348 354 359 2 4 6 9 13 15 17 18 21 22 21 18 11 3 356 347 335 320 301 282 265 254 247 242 240 238 236 235 234 233 232 231 230 229 229 229 228 225 223 220 216 214 211 209 209 208 208 207 206 205 203 202 201 201 202 202 202
350 350 349 349 348 348 347 348 351 356 1 5 6 6 7 9 12 15 17 20 21 21 19 16 11 8 7 7 7 6 1 352 329 300 274 255 245 239 236 234 233 232 231 231 229 226 225 225 224 222 220 217 214 212 210 209 208 208 207 206 205 203 201 199 197 196 196 196 197
350 350 350 350 350 350 351 353 357 360 3 4 5 7 8 10 12 14 17 20 21 20 17 14 11 7 5 6 9 12 14 13 6 353 334 301 266 245 234 230 230 230 229 228 224 222 219 218 219 218 216 214 212 211 210 208 207 206 204 202 201 199 197 194 192 190 190 189 190
349 350 350 351 351 352 354 356 357 358 359 0 2 5 7 9 11 14 17 20 20 19 18 17 14 10 6 6 10 13 15 14 12 9 3 353 335 301 261 237 232 230 230 228 219 213 210 210 210 210 210 210 209 208 207 206 203 200 197 195 193 192 190 188 186 184 184 184 185
349 350 350 351 352 353 354 355 355 355 356 358 360 1 3 4 8 12 16 18 18 19 20 20 16 11 8 9 12 14 14 12 12 12 12 10 6 360 351 326 298 299 317 321 273 224 206 200 198 197 197 198 198 198 197 197 194 191 189 186 184 183 183 182 181 180 181 183 185
350 350 351 351 352 353 353 353 354 355 356 358 358 359 1 4 8 10 13 14 15 17 18 17 13 10 9 10 12 12 12 11 11 12 13 15 16 15 12 8 7 7 1 351 338 315 253 207 195 189 186 184 185 185 184 182 181 180 180 178 178 178 178 179 179 180 183 186 189
351 351 352 354 354 353 353 353 354 355 356 357 358 0 4 7 9 11 11 12 14 14 13 10 8 8 8 8 7 8 9 10 9 10 11 14 16 16 15 13 11 6 3 2 359 350 328 265 219 200 189 182 180 179 178 176 174 174 175 176 178 179 179 180 182 185 187 189 190
351 352 353 355 356 356 356 355 355 355 355 356 359 2 6 9 10 11 13 14 14 13 10 6 7 8 8 6 4 4 5 6 6 8 11 13 13 10 7 5 5 4 4 6 8 5 358 336 287 232 206 192 187 183 181 178 176 176 177 179 181 182 182 183 184 186 187 188 187
351 351 352 354 357 357 357 357 356 357 358 359 2 4 7 9 10 11 12 12 12 10 8 7 9 10 10 7 6 5 4 3 5 8 10 12 10 8 5 4 5 6 6 6 8 9 8 3 345 311 249 209 199 192 188 184 183 183 183 183 183 182 182 182 182 182 183 183 184
351 351 352 353 356 357 357 357 358 359 1 3 4 6 8 9 9 9 8 8 8 8 8 8 9 10 9 9 8 7 6 5 5 6 7 8 7 7 6 5 7 7 6 6 7 8 9 10 6 354 329 269 232 210 197 191 189 189 189 187 185 183 181 180 179 178 178 180 182
351 351 352 353 354 356 356 357 358 360 2 4 5 6 7 7 7 7 6 6 6 7 8 8 9 9 9 8 8 8 7 7 6 5 5 5 5 6 7 8 8 6 5 5 6 7 7 9 10 7 359 338 302 257 222 202 196 193 191 190 187 184 181 179 177 175 175 176 178
351 351 352 353 354 355 356 356 357 359 1 4 5 6 6 6 6 6 5 3 4 5 6 7 7 7 7 8 9 8 7 6 6 5 5 4 4 6 8 9 7 6 5 6 6 6 6 7 8 8 5 359 345 319 281 237 211 198 193 190 188 185 182 180 176 174 172 172 172
351 351 351 352 353 354 355 356 357 358 1 3 4 5 5 5 5 5 3 1 2 4 7 7 7 6 7 8 9 9 8 7 6 6 6 5 5 7 8 8 6 5 6 6 6 6 6 6 7 6 5 4 359 346 330 303 258 214 196 188 186 184 183 181 178 175 172 171 169
351 351 351 351 353 354 355 356 356 358 359 1 2 2 3 3 4 3 2 0 3 5 7 8 8 8 8 8 8 8 7 6 6 6 6 7 8 8 8 6 5 5 5 6 6 6 6 6 6 6 5 4 2 355 347 337 321 282 220 192 185 182 181 180 178 176 174 174 173
351 351 351 351 352 353 355 355 356 357 358 359 360 360 360 0 1 1 1 360 2 4 6 7 8 8 8 6 6 6 5 5 5 6 7 8 8 8 6 5 4 3 4 5 5 6 6 7 7 6 4 2 359 357 354 349 342 332 316 254 197 183 179 178 178 177 178 179 178
351 352 352 351 352 353 354 355 356 356 357 357 357 357 357 358 359 360 360 359 1 2 4 6 7 7 6 5 4 5 5 6 6 7 7 7 7 6 5 4 3 2 2 3 4 6 6 7 7 7 5 0 357 354 353 353 352 347 342 335 323 248 188 179 179 180 182 183 182
350 351 351 351 351 352 353 355 356 356 355 355 356 356 356 357 357 358 358 357 358 360 2 4 6 6 5 4 4 5 7 8 8 8 7 6 5 4 3 4 2 360 360 1 3 4 6 6 7 7 6 1 356 352 350 350 353 354 354 350 346 344 344 342 272 197 190 187 183
349 350 350 351 351 352 353 354 355 354 354 355 356 356 356 356 355 355 356 356 357 358 360 2 3 4 5 5 5 6 7 8 9 9 7 5 3 2 2 3 0 358 358 359 2 3 4 5 5 6 6 2 357 351 348 346 349 354 357 358 355 353 352 352 349 339 291 211 191
348 349 350 350 350 351 353 353 353 353 354 355 356 356 354 354 354 355 356 356 356 357 357 358 0 2 4 5 5 5 6 7 8 8 7 6 5 3 2 2 359 357 356 357 360 2 3 4 4 5 5 3 357 352 349 346 348 351 354 355 356 355 354 354 354 351 344 330 264